Flag for Czechia

Past Weather in Ostrava, Czechia — Yesterday and Last 2 Weeks

Now
62 °F

Light rain. Overcast.


Feels Like: 62 °F
Forecast: 58 / 46 °F
Wind: 3 mph from Southwest

Location: Ostrava / Mosnov
Current Time: Sep 25, 2020 at 4:31:48 pm
Latest Report: Sep 25, 2020 at 3:00 pm
Visibility: 6 mi
Pressure29.44 "Hg
Humidity: 94%
Dew Point: 60 °F
Location of OstravaLocation

Past Weather in Ostrava — Graph

°F

Ostrava Temperature Yesterday

Maximum temperature yesterday: 72 °F (at 4:00 pm)
Minimum temperature yesterday: 59 °F (at 11:00 pm)
Average temperature yesterday: 65 °F

High & Low Weather Summary for the Past Weeks

 TemperatureHumidityPressure
High83 °F (Sep 16, 2:00 pm)100% (Sep 11, 3:00 am)30.42 "Hg (Sep 11, 3:00 am)
Low40 °F (Sep 19, 7:00 am)35% (Sep 22, 1:00 pm)29.47 "Hg (Sep 25, 11:00 am)
Average62 °F78%30.11 "Hg
* Reported Sep 10 2:00 pm — Sep 25 2:00 pm, Ostrava. Weather by CustomWeather, © 2020

Note: Actual official high and low records may vary slightly from our data, if they occured in-between our weather recording intervals... More about our weather records

Ostrava Weather History for the Previous 24 Hours

Scroll right to see more
 ConditionsComfort  
Time TempWeatherWind HumidityBarometerVisibility
2:00 pm
Fri, Sep 25
62 °FLight rain. Overcast.3 mph98%29.47 "Hg6 mi
1:00 pm60 °FLight rain. Overcast.5 mph98%29.47 "Hg2 mi
12:00 pm65 °FLight rain. Overcast.6 mph87%29.47 "Hg6 mi
11:00 am70 °FOvercast.6 mph64%29.47 "Hg19 mi
10:00 am69 °FOvercast.6 mph64%29.50 "Hg19 mi
9:00 am68 °FOvercast.6 mph66%29.50 "Hg19 mi
8:00 am68 °FOvercast.6 mph67%29.53 "Hg19 mi
7:00 am66 °FPartly sunny.N/A76%29.56 "Hg16 mi
6:00 am52 °FFog.N/A100%29.61 "Hg2 mi
5:00 am52 °FFog.N/A100%29.63 "Hg0 mi
4:00 am53 °FFog.N/A100%29.66 "Hg6 mi
3:00 am53 °FFog.1 mph100%29.69 "Hg9 mi
2:00 am54 °FFog.No wind99%29.72 "Hg12 mi
1:00 am55 °FClear.N/A97%29.74 "Hg12 mi
12:00 am56 °FClear.N/A96%29.76 "Hg16 mi
11:00 pm
Thu, Sep 24
59 °FPassing clouds.1 mph94%29.77 "Hg16 mi
10:00 pm60 °FPassing clouds.N/A91%29.79 "Hg19 mi
9:00 pm62 °FPassing clouds.2 mph85%29.79 "Hg16 mi
8:00 pm65 °FPassing clouds.3 mph81%29.78 "Hg19 mi
7:00 pm66 °FPassing clouds.3 mph77%29.78 "Hg19 mi
6:00 pm70 °FPartly sunny.3 mph67%29.78 "Hg19 mi
5:00 pm72 °FScattered clouds.6 mph62%29.78 "Hg22 mi
4:00 pm72 °FScattered clouds.7 mph64%29.79 "Hg19 mi
Weather by CustomWeather, © 2020

See weather overview